Location: American Medical Response
(33.3472°N, 96.5511°W)
Time: 20:33:15
(UTC+00:00)

SL-4 R/B - Pass Details

Date: 12 July 2022
Orbit: 425 x 653 km, 51.6° (Epoch: 11 August)

Event Time Altitude Azimuth Distance (km) Brightness Sun altitude
Rises 10:22:05 0° 311° (NW) 2,579 5.3 -12.1°
Reaches altitude 10° 10:24:12 10° 310° (NW) 1,731 4.4 -11.8°
Maximum altitude 10:28:07 73° 226° (SW) 565 1.9 -11.1°
Drops below altitude 10° 10:32:21 10° 141° (SE) 1,866 4.8 -10.4°
Sets 10:34:42 0° 139° (SE) 2,802 5.7 -10.0°
